Theta_e
285 285 284 284 284 283 282 281 281 281 280 280 280 279 279 278 277 277 276 277 276 276 276 276 277 277 276 276 276 276 276 275 273 275 277 277 277 277 279 280 281 281 282
285 284 284 284 283 282 281 281 280 279 279 278 279 278 278 277 276 276 275 276 275 276 276 276 275 278 274 275 274 274 274 274 273 272 274 275 275 276 276 276 278 280 280
285 284 283 282 282 281 280 280 279 278 277 277 277 277 276 276 275 275 275 275 275 275 275 275 275 275 274 274 273 272 273 274 273 272 272 274 274 275 275 276 276 276 279
284 283 282 281 281 281 280 279 279 278 277 276 276 275 275 275 275 275 276 275 275 275 276 275 275 274 274 273 273 273 274 273 273 272 271 272 272 274 274 273 273 275 275
284 282 282 281 282 281 280 278 278 277 276 276 275 274 274 274 275 274 276 275 275 275 275 276 275 275 277 277 275 274 273 272 272 272 271 271 271 272 272 273 272 273 274
283 282 282 282 281 281 279 277 277 276 275 275 274 274 273 274 276 276 277 275 275 275 274 274 274 275 274 277 277 278 277 274 272 270 270 271 272 272 273 273 272 271 270
282 282 282 282 280 279 278 276 275 274 274 273 273 273 272 273 277 277 277 275 274 274 274 274 274 274 274 274 275 277 277 277 278 276 272 272 272 273 274 273 273 273 272
282 282 281 280 279 278 276 275 274 273 272 272 272 272 272 273 277 277 277 275 274 274 274 274 273 273 274 274 274 274 275 276 276 277 276 276 277 277 277 277 276 276 276
282 282 280 279 278 277 275 274 273 272 271 270 271 269 269 270 276 276 276 273 273 273 274 274 274 273 276 278 276 274 274 274 276 278 278 279 279 279 278 275 272 271 271
281 281 280 279 278 276 274 272 271 270 271 272 272 270 269 266 274 275 275 272 268 271 273 274 276 275 278 279 276 273 270 271 272 273 272 272 274 274 276 275 273 271 271
279 279 279 279 277 275 273 271 270 270 271 268 268 268 267 268 268 274 276 273 271 270 271 272 274 276 277 278 278 273 271 274 271 267 267 268 269 270 271 273 274 272 269
279 278 276 274 275 273 272 269 269 267 266 264 264 265 268 269 271 273 275 276 275 271 270 272 273 276 278 278 276 275 275 273 266 265 265 265 266 268 270 270 271 271 272
276 275 272 271 272 271 269 268 266 265 265 265 266 265 267 270 269 274 275 276 276 274 273 274 277 276 276 273 273 273 271 265 264 263 264 265 267 268 269 268 269 270 271
272 270 270 270 268 268 269 268 267 265 265 266 266 266 265 267 268 269 269 268 273 273 273 272 272 274 273 271 267 269 267 266 266 265 265 266 267 266 266 267 267 267 267
271 269 268 268 268 266 267 267 267 266 268 262 262 263 260 260 265 271 270 267 267 271 272 268 261 262 262 263 263 264 265 265 264 265 264 263 264 265 265 266 266 266 265
269 268 268 267 266 266 265 263 273 273 274 275 275 268 263 271 274 276 277 277 278 277 268 256 257 259 261 261 261 261 262 263 264 264 263 263 263 263 264 265 266 265 265
266 267 267 267 266 265 264 264 262 266 275 276 276 276 276 276 276 276 276 276 276 275 259 255 256 258 259 261 260 261 262 263 263 262 262 262 262 263 263 263 264 265 264
263 265 265 264 265 265 264 262 260 258 258 259 268 271 271 272 272 273 274 274 269 264 253 253 254 255 255 257 258 258 260 260 260 260 260 260 261 262 262 262 263 263 263
263 262 263 263 262 262 261 258 257 255 254 254 256 262 264 268 269 271 271 266 262 255 253 251 252 253 255 255 256 256 256 258 259 258 259 260 260 261 261 262 262 264 264
259 262 260 261 260 260 258 258 256 255 255 255 256 256 257 256 253 254 254 252 251 252 251 251 251 251 252 253 253 254 254 254 255 255 258 259 259 260 261 261 261 263 263
257 257 260 259 260 259 260 256 257 256 255 254 256 258 265 258 257 255 254 256 257 254 253 252 252 252 252 253 253 252 252 255 254 252 257 258 259 259 259 260 263 263 263
259 259 259 260 260 259 255 255 256 256 255 254 254 254 264 260 252 253 255 255 253 251 252 252 252 252 254 256 254 250 250 251 253 249 255 257 257 257 258 260 263 262 262
259 259 258 256 254 256 255 254 255 256 255 253 254 254 250 252 252 252 253 252 251 253 250 253 256 256 256 255 251 251 252 253 252 248 254 256 256 257 258 261 262 261 261
254 255 255 255 256 256 254 252 252 254 254 254 251 251 251 251 253 254 253 252 254 254 255 256 256 255 255 252 249 250 251 253 252 253 250 255 256 256 258 262 259 259 259
252 253 253 252 251 251 250 250 251 249 251 252 252 252 251 253 254 253 252 252 256 257 255 255 255 254 252 250 250 249 250 255 254 253 252 254 255 256 259 257 254 254 254
252 252 251 250 249 248 248 250 250 251 251 252 252 252 251 253 254 254 256 257 256 255 255 255 254 251 250 250 249 251 252 256 255 254 254 256 258 261 260 255 254 251 251
Wind_Speed
8 7 8 7 7 7 7 7 7 6 6 6 6 5 4 4 4 4 2 4 4 3 3 3 4 5 3 4 3 3 3 3 8 15 9 9 12 11 13 13 13 13 11
8 7 7 8 7 7 7 7 7 7 6 6 5 5 4 3 3 3 3 2 2 3 4 3 4 4 5 4 3 4 4 3 6 16 11 10 11 11 12 14 13 11 12
10 9 8 8 8 8 8 7 7 7 6 5 5 5 4 3 1 2 1 2 2 3 4 4 5 4 4 3 3 4 4 7 5 8 14 10 10 10 11 10 12 14 10
10 9 9 9 8 8 8 8 7 7 7 5 4 4 3 2 1 1 1 2 3 3 4 4 5 5 4 4 6 6 7 6 8 9 11 11 10 10 10 11 11 9 12
11 9 10 8 8 8 8 8 7 6 6 5 5 4 3 2 2 1 2 3 4 4 4 5 5 4 11 11 6 5 7 6 7 9 11 11 11 11 12 10 12 11 11
12 10 9 9 8 8 8 7 7 6 6 5 5 5 5 2 5 5 4 3 5 6 5 5 4 5 7 13 15 17 14 11 11 9 11 12 16 13 12 11 12 13 14
11 9 9 10 8 9 9 8 7 7 6 6 6 6 5 5 7 7 7 4 5 5 6 6 6 5 6 8 12 18 17 19 21 17 17 15 18 15 16 16 15 15 15
11 10 9 10 10 10 9 9 6 6 7 6 6 6 5 5 9 8 9 5 6 7 6 6 7 8 7 10 11 11 10 11 13 11 14 15 14 14 14 14 16 16 11
13 12 11 11 12 11 11 11 7 6 6 5 4 5 5 4 9 10 8 4 7 8 7 7 8 8 12 18 12 9 11 11 15 25 27 29 30 31 26 14 12 11 13
13 13 12 12 13 13 12 10 5 5 6 6 5 6 7 6 11 11 10 4 5 6 6 7 11 9 18 18 10 8 11 13 15 12 11 16 18 16 23 13 11 11 11
8 10 11 11 12 10 9 5 7 6 5 5 5 4 5 5 6 13 14 6 5 5 5 5 5 15 18 19 17 9 11 17 12 9 10 10 10 11 9 10 11 10 11
9 10 10 9 7 8 10 6 6 6 6 5 4 4 5 6 11 13 15 15 13 7 5 5 7 18 19 15 16 20 21 16 6 7 8 9 9 9 9 10 13 12 11
9 9 8 8 7 8 10 9 5 6 5 6 6 5 4 5 6 13 14 14 15 9 5 11 20 10 13 11 15 17 11 3 4 7 8 9 9 10 13 12 12 12 12
8 8 7 8 7 6 5 6 7 7 6 5 5 5 3 3 4 4 4 5 10 9 12 8 7 11 11 11 5 7 5 5 6 7 8 9 9 9 10 9 10 10 10
7 7 7 6 8 7 5 6 6 3 6 4 4 4 4 3 4 9 8 6 6 10 11 1 1 1 2 2 3 4 4 5 6 6 7 9 9 10 10 9 9 9 9
6 6 6 6 5 5 5 2 11 11 12 13 12 8 4 11 15 16 17 18 18 18 1 2 2 2 3 3 4 5 3 6 5 6 7 8 9 10 10 10 9 9 9
6 6 5 5 6 5 4 5 4 5 12 14 15 15 16 15 16 17 18 19 18 16 3 3 3 3 3 3 4 4 6 6 6 6 7 8 9 9 11 10 10 9 10
6 7 5 4 4 4 4 3 3 3 3 2 7 9 10 13 15 16 17 17 8 3 3 4 4 4 3 4 4 3 5 5 6 6 7 7 8 8 10 10 10 10 10
6 4 5 4 4 4 3 3 3 2 2 2 2 6 6 13 15 15 17 7 4 3 3 3 4 3 3 4 4 4 4 6 6 7 7 7 7 8 10 10 11 14 13
6 7 5 4 3 3 3 2 1 2 2 2 3 4 3 1 1 3 3 3 3 3 3 4 4 3 4 4 4 4 4 4 6 5 6 7 7 7 9 10 10 11 11
4 4 6 4 3 3 3 3 3 2 2 3 3 3 12 6 7 5 5 5 5 5 5 4 4 4 4 4 4 4 5 6 5 5 6 7 7 8 8 9 10 10 10
4 5 4 3 3 3 2 2 2 2 3 3 3 4 16 6 3 3 3 4 4 4 4 4 4 4 4 5 4 4 5 5 6 4 6 7 7 7 8 9 9 9 9
3 4 3 2 2 2 1 1 2 3 3 3 4 4 3 4 5 5 5 5 4 4 3 3 5 6 6 6 4 5 6 7 6 4 6 7 8 8 7 9 8 8 8
3 3 3 3 3 3 2 3 3 4 4 4 5 5 4 4 5 6 5 4 4 3 3 5 6 8 7 6 5 5 5 7 5 7 6 7 9 9 8 7 6 8 7
2 2 2 2 1 2 2 3 4 4 4 4 4 4 4 5 5 5 4 3 5 6 7 6 6 8 9 10 10 9 9 13 10 8 5 8 11 13 11 5 4 5 4
2 1 2 1 2 3 3 4 4 4 4 4 5 5 4 5 5 4 5 6 6 7 7 6 7 10 10 9 10 11 12 14 12 12 9 9 9 9 6 5 6 3 4
Wind_Direction
144 145 139 136 132 116 110 117 123 118 117 115 117 119 112 101 82 79 66 71 33 8 351 353 313 322 319 334 330 311 313 310 291 296 306 313 314 307 313 314 308 305 303
151 145 145 136 130 120 123 125 129 133 130 133 135 128 114 105 88 97 68 43 14 342 310 309 314 321 324 316 314 318 313 303 287 293 308 309 313 313 308 305 309 306 305
156 156 149 144 139 143 142 141 142 142 137 136 132 138 130 115 119 84 69 348 311 292 305 310 303 315 307 308 338 307 293 298 286 291 300 307 306 311 307 302 304 302 303
161 162 153 154 157 151 146 151 151 152 147 153 146 136 158 154 205 179 342 325 308 300 304 297 294 292 298 321 303 292 298 301 297 290 295 302 303 309 299 302 301 302 304
167 168 167 160 158 149 149 150 148 144 149 147 150 166 183 196 215 114 322 303 300 290 284 280 274 289 303 298 296 293 291 288 288 292 295 300 302 305 302 305 296 298 293
172 175 162 160 157 151 144 145 148 152 152 158 182 189 201 214 225 239 261 268 290 286 285 279 293 288 283 300 301 301 299 300 297 296 290 289 295 296 293 294 293 295 293
168 169 168 163 158 152 148 149 163 172 167 180 194 197 206 216 236 244 264 275 277 273 274 284 292 291 293 284 288 290 289 285 289 297 294 285 288 288 287 285 281 278 279
171 169 164 161 158 150 154 168 167 170 179 187 200 200 203 218 235 245 259 259 266 271 269 266 269 273 269 285 282 281 288 286 288 290 291 295 289 285 281 290 299 294 287
178 175 172 164 160 161 174 178 180 167 183 188 184 185 193 216 240 248 255 257 265 267 271 264 256 260 274 291 294 306 302 306 304 305 302 302 305 307 307 309 300 297 295
181 181 169 166 170 178 180 174 157 167 184 187 194 192 202 212 238 251 251 229 251 267 268 269 270 277 290 298 306 311 313 312 306 309 323 312 307 302 307 303 299 294 297
161 157 165 173 178 175 162 153 158 163 170 185 195 203 204 204 229 252 250 236 242 256 260 268 268 287 292 299 310 324 302 303 335 326 313 310 309 306 307 305 309 317 313
153 157 162 158 156 159 162 150 160 163 177 190 197 229 223 221 223 243 243 246 250 253 251 266 270 284 291 304 317 312 307 328 323 309 306 307 307 306 309 311 303 300 293
148 155 147 142 152 157 162 164 157 167 181 195 211 223 225 217 208 239 243 251 265 272 268 268 277 305 311 321 307 303 326 312 290 301 303 302 308 309 308 307 299 298 292
145 146 146 156 154 157 163 169 175 181 193 202 206 219 207 203 197 196 215 249 270 283 285 286 269 276 305 306 318 299 292 290 293 296 298 304 309 307 306 310 309 311 309
147 151 157 162 169 169 183 180 188 196 186 178 203 183 180 218 225 232 224 219 226 238 251 190 37 272 271 270 276 270 280 287 294 294 301 304 303 309 308 311 305 303 298
151 159 166 162 168 161 170 214 220 208 222 236 230 194 218 233 238 248 255 266 271 271 206 157 227 225 246 259 268 277 268 285 289 299 301 296 303 306 308 310 305 302 302
145 146 148 149 156 163 157 163 176 257 233 239 243 250 259 253 260 267 271 274 280 287 149 205 207 212 235 253 263 268 285 287 299 295 295 296 302 301 310 309 309 304 309
121 131 137 139 142 145 155 164 144 161 202 273 266 264 269 275 278 276 275 277 280 290 160 192 218 217 221 244 257 262 281 288 289 289 290 290 292 300 306 308 308 310 309
116 104 112 109 101 105 111 112 127 144 189 224 331 287 297 284 286 285 284 284 260 216 214 218 213 213 220 234 248 260 260 278 283 288 285 287 295 301 301 306 304 306 310
82 103 90 106 110 110 107 126 146 183 212 224 228 233 251 5 292 263 255 254 230 224 218 224 235 224 226 230 238 249 264 269 272 267 282 290 294 295 301 304 301 311 313
102 92 101 85 107 142 160 173 187 190 216 232 240 242 269 242 243 233 237 245 237 225 225 222 232 232 229 232 235 245 249 265 265 263 282 290 291 300 299 298 297 311 309
109 128 134 149 158 162 172 177 187 205 221 238 258 269 285 296 294 257 254 260 242 222 215 208 228 227 229 241 230 231 246 255 265 248 277 284 290 293 295 295 307 312 313
113 125 121 114 124 151 131 190 221 245 245 248 254 259 253 255 259 260 259 255 245 244 233 215 245 253 245 238 218 219 238 252 246 214 272 285 289 291 292 292 310 309 316
114 121 138 166 173 186 193 221 230 235 240 244 247 250 246 241 246 249 246 238 232 235 226 242 242 244 256 247 238 236 237 255 245 249 228 270 281 286 282 288 296 299 307
109 133 143 171 193 211 228 238 236 238 243 246 249 247 244 248 251 249 242 229 250 259 253 245 246 250 250 248 249 244 243 261 262 256 250 253 258 265 269 273 274 295 294
146 170 212 217 226 223 222 237 244 245 249 253 253 251 245 250 248 253 258 261 262 259 256 254 249 247 252 256 252 253 254 257 250 239 232 244 251 259 258 258 279 274 281